Terug naar catalogus

ONEWEB-0644

ActiefCommunicatiePO
NORAD 55808·PAYLOAD·🇬🇧 United Kingdom

Gelanceerd Mar 9, 2023 vanaf Cape Canaveral Space Force Station

Loading…

Volgende Passages (komende 24 uur)

TLE

VersSource: CelesTrak SupGP

Epoch: Sep 14, 2026, 08:28 UTC

1 55808C 23029N   26257.35331435 -.00000138  00000+0 -34594-3 0  2579
2 55808  87.9100 287.2133 0001807  84.8441  26.5061 13.19721712    19

Volg ONEWEB-0644 in realtime met AllMySat

Download on the App Store